sat.trackr.live / text

‹ back to catalog

ONEWEB-0231

NORAD 48782 · 2021-045R

PAYLOAD ACTIVE UNKNOWN

§ Identity

Operator
Country
UK
Launch date
2021-05-28
Launch site
VOSTO
Launch vehicle
Mass (kg)
RCS (m²)

Purposes: comms

External: N2YO · Heavens-Above · Gunter

§ Orbital elements

Epoch: 2026-09-20T04:41:06.550080Z

Period
109.46 min
Inclination
87.8988°
Eccentricity
0.0001958
Mean motion
13.15547666 rev/d
Perigee alt
1,200.3 km
Apogee alt
1,203.3 km
Semi-major
7,579.9 km
B*
-3.0227e-4
RAAN
240.2557°
Arg perigee
76.5675°
Mean anomaly
283.5674°
Rev number
25,683

§ Raw data

ONEWEB-02311 48782U 21045R   26263.19521470 -.00000101  00000+0 -30227-3 0  99992 48782  87.8988 240.2557 0001958  76.5675 283.5674 13.15547666256836

JSON: /api/v1/satellites/48782 · /tle

For live sub-satellite position, see the globe view (requires WebGL).

§ Visibility from observer

Set your observer location to see the next 7 days of passes ≥ 10°. The values pass through the URL so the page stays shareable.

No JS? Fill the form by hand. The geolocation button needs JavaScript.